Time,TemperatureF,DewpointF,PressureIn,WindDirection,WindDirectionDegrees,WindSpeedMPH,WindSpeedGustMPH,Humidity,HourlyPrecipIn,Conditions,Clouds,dailyrainin,SolarRadiationWatts/m^2,SoftwareType,DateUTC
2013-05-05 00:01:00,41.5,38.8,30.30,SE,138,0.0,4.0,90,0.00,,,0.00,0.0,meteohub,2013-05-05 04:01:00,
2013-05-05 00:02:00,41.5,38.8,30.30,SE,138,0.0,4.0,90,0.00,,,0.00,0.0,meteohub,2013-05-05 04:02:00,
2013-05-05 00:05:00,41.5,38.8,30.30,SE,138,0.0,2.0,90,0.00,,,0.00,0.0,meteohub,2013-05-05 04:05:00,
2013-05-05 00:10:00,41.4,38.7,30.30,SE,138,0.0,2.0,90,0.00,,,0.00,0.0,meteohub,2013-05-05 04:10:00,
2013-05-05 00:15:00,41.4,38.7,30.30,SE,138,0.0,1.0,90,0.00,,,0.00,0.0,meteohub,2013-05-05 04:15:00,
2013-05-05 00:20:00,41.4,38.7,30.30,SE,138,0.0,0.0,90,0.00,,,0.00,0.0,meteohub,2013-05-05 04:20:00,
2013-05-05 00:26:00,41.4,38.7,30.30,SE,138,0.0,0.0,90,0.00,,,0.00,0.0,meteohub,2013-05-05 04:26:00,
2013-05-05 00:31:00,41.2,38.5,30.30,SE,138,0.0,1.0,90,0.00,,,0.00,0.0,meteohub,2013-05-05 04:31:00,
2013-05-05 00:36:00,41.2,38.5,30.29,SE,138,0.0,1.0,90,0.00,,,0.00,0.0,meteohub,2013-05-05 04:36:00,
2013-05-05 00:41:00,40.8,38.1,30.29,SE,138,0.0,1.0,90,0.00,,,0.00,0.0,meteohub,2013-05-05 04:41:00,
2013-05-05 00:46:00,40.6,37.9,30.30,SE,138,0.0,0.0,90,0.00,,,0.00,0.0,meteohub,2013-05-05 04:46:00,
2013-05-05 00:51:00,40.1,37.4,30.30,SE,138,0.0,0.0,90,0.00,,,0.00,0.0,meteohub,2013-05-05 04:51:00,
2013-05-05 00:56:00,39.9,37.2,30.30,SE,138,0.0,0.0,90,0.00,,,0.00,0.0,meteohub,2013-05-05 04:56:00,
2013-05-05 01:01:00,39.6,36.9,30.30,SE,138,0.0,4.0,90,0.00,,,0.00,0.0,meteohub,2013-05-05 05:01:00,
2013-05-05 01:07:00,39.0,36.3,30.30,SE,138,0.0,4.0,90,0.00,,,0.00,0.0,meteohub,2013-05-05 05:07:00,
2013-05-05 01:12:00,39.0,36.7,30.30,SE,138,0.0,4.0,91,0.00,,,0.00,0.0,meteohub,2013-05-05 05:12:00,
2013-05-05 01:17:00,38.8,36.5,30.29,ENE,70,0.0,2.0,91,0.00,,,0.00,0.0,meteohub,2013-05-05 05:17:00,
2013-05-05 01:22:00,38.7,36.3,30.29,ENE,69,2.0,4.0,91,0.00,,,0.00,0.0,meteohub,2013-05-05 05:22:00,
2013-05-05 01:27:00,38.5,36.1,30.29,ENE,70,0.0,4.0,91,0.00,,,0.00,0.0,meteohub,2013-05-05 05:27:00,
2013-05-05 01:32:00,38.5,36.1,30.29,ENE,69,0.0,3.0,91,0.00,,,0.00,0.0,meteohub,2013-05-05 05:32:00,
2013-05-05 01:37:00,38.7,36.3,30.29,ENE,70,0.0,3.0,91,0.00,,,0.00,0.0,meteohub,2013-05-05 05:37:00,
2013-05-05 01:43:00,39.0,36.9,30.29,ENE,69,0.0,3.0,92,0.00,,,0.00,0.0,meteohub,2013-05-05 05:43:00,
2013-05-05 01:48:00,38.8,36.5,30.28,ENE,69,2.0,2.0,91,0.00,,,0.00,0.0,meteohub,2013-05-05 05:48:00,
2013-05-05 01:53:00,38.7,36.3,30.28,ENE,69,0.0,2.0,91,0.00,,,0.00,0.0,meteohub,2013-05-05 05:53:00,
2013-05-05 01:58:00,38.1,35.8,30.28,ENE,69,0.0,2.0,91,0.00,,,0.00,0.0,meteohub,2013-05-05 05:58:00,
2013-05-05 02:03:00,37.9,35.6,30.28,ENE,70,0.0,2.0,91,0.00,,,0.00,0.0,meteohub,2013-05-05 06:03:00,
2013-05-05 02:08:00,37.9,35.8,30.28,ENE,69,1.0,2.0,92,0.00,,,0.00,0.0,meteohub,2013-05-05 06:08:00,
2013-05-05 02:13:00,38.3,36.1,30.28,ENE,69,1.0,1.0,92,0.00,,,0.00,0.0,meteohub,2013-05-05 06:13:00,
2013-05-05 02:18:00,38.7,36.5,30.28,ENE,69,0.0,3.0,92,0.00,,,0.00,0.0,meteohub,2013-05-05 06:18:00,
2013-05-05 02:24:00,38.5,36.3,30.28,ENE,69,2.0,3.0,92,0.00,,,0.00,0.0,meteohub,2013-05-05 06:24:00,
2013-05-05 02:29:00,38.1,36.0,30.28,ENE,70,0.0,3.0,92,0.00,,,0.00,0.0,meteohub,2013-05-05 06:29:00,
2013-05-05 02:34:00,37.9,35.8,30.27,ENE,69,1.0,3.0,92,0.00,,,0.00,0.0,meteohub,2013-05-05 06:34:00,
2013-05-05 02:39:00,37.9,35.8,30.27,ENE,69,0.0,3.0,92,0.00,,,0.00,0.0,meteohub,2013-05-05 06:39:00,
2013-05-05 02:44:00,37.9,35.8,30.27,ENE,69,0.0,3.0,92,0.00,,,0.00,0.0,meteohub,2013-05-05 06:44:00,
2013-05-05 02:49:00,37.8,35.6,30.27,ENE,70,1.0,3.0,92,0.00,,,0.00,0.0,meteohub,2013-05-05 06:49:00,
2013-05-05 02:54:00,37.2,35.1,30.27,ENE,69,0.0,3.0,92,0.00,,,0.00,0.0,meteohub,2013-05-05 06:54:00,
2013-05-05 02:59:00,37.4,35.2,30.27,ENE,69,2.0,3.0,92,0.00,,,0.00,0.0,meteohub,2013-05-05 06:59:00,
2013-05-05 03:04:00,37.8,35.6,30.27,ENE,69,3.0,3.0,92,0.00,,,0.00,0.0,meteohub,2013-05-05 07:04:00,
2013-05-05 03:10:00,37.9,36.1,30.27,ENE,69,0.0,3.0,93,0.00,,,0.00,0.0,meteohub,2013-05-05 07:10:00,
2013-05-05 03:15:00,37.9,36.1,30.27,ENE,69,0.0,3.0,93,0.00,,,0.00,0.0,meteohub,2013-05-05 07:15:00,
2013-05-05 03:20:00,37.9,36.1,30.27,ENE,69,0.0,3.0,93,0.00,,,0.00,0.0,meteohub,2013-05-05 07:20:00,
2013-05-05 03:25:00,37.8,35.6,30.28,ENE,69,0.0,2.0,92,0.00,,,0.00,0.0,meteohub,2013-05-05 07:25:00,
2013-05-05 03:30:00,37.8,35.6,30.27,ENE,69,0.0,2.0,92,0.00,,,0.00,0.0,meteohub,2013-05-05 07:30:00,
2013-05-05 03:35:00,37.8,35.6,30.27,ENE,69,2.0,3.0,92,0.00,,,0.00,0.0,meteohub,2013-05-05 07:35:00,
2013-05-05 03:40:00,37.6,35.4,30.27,ENE,59,4.0,4.0,92,0.00,,,0.00,0.0,meteohub,2013-05-05 07:40:00,
2013-05-05 03:45:00,37.8,36.0,30.27,ENE,57,2.0,4.0,93,0.00,,,0.00,0.0,meteohub,2013-05-05 07:45:00,
2013-05-05 03:51:00,37.9,36.1,30.27,North,5,2.0,4.0,93,0.00,,,0.00,0.0,meteohub,2013-05-05 07:51:00,
2013-05-05 03:56:00,37.8,36.0,30.27,North,5,3.0,4.0,93,0.00,,,0.00,0.0,meteohub,2013-05-05 07:56:00,
2013-05-05 04:01:00,37.8,36.0,30.27,North,0,3.0,4.0,93,0.00,,,0.00,0.0,meteohub,2013-05-05 08:01:00,
2013-05-05 04:06:00,37.8,36.0,30.27,North,0,3.0,4.0,93,0.00,,,0.00,0.0,meteohub,2013-05-05 08:06:00,
2013-05-05 04:11:00,37.8,35.6,30.27,North,0,2.0,4.0,92,0.00,,,0.00,0.0,meteohub,2013-05-05 08:11:00,
2013-05-05 04:16:00,37.8,36.0,30.27,North,0,2.0,5.0,93,0.00,,,0.00,0.0,meteohub,2013-05-05 08:16:00,
2013-05-05 04:21:00,37.8,36.0,30.27,North,0,2.0,5.0,93,0.00,,,0.00,0.0,meteohub,2013-05-05 08:21:00,
2013-05-05 04:26:00,37.9,36.1,30.27,NNW,348,4.0,5.0,93,0.00,,,0.00,0.0,meteohub,2013-05-05 08:26:00,
2013-05-05 04:31:00,38.1,36.3,30.27,NNW,347,2.0,6.0,93,0.00,,,0.00,0.0,meteohub,2013-05-05 08:31:00,
2013-05-05 04:37:00,38.1,36.0,30.27,NNW,348,5.0,6.0,92,0.00,,,0.00,0.0,meteohub,2013-05-05 08:37:00,
2013-05-05 04:42:00,38.1,36.0,30.27,North,355,2.0,6.0,92,0.00,,,0.00,0.0,meteohub,2013-05-05 08:42:00,
2013-05-05 04:47:00,38.1,36.0,30.27,North,355,4.0,6.0,92,0.00,,,0.00,0.0,meteohub,2013-05-05 08:47:00,
2013-05-05 04:52:00,38.1,36.0,30.27,North,355,5.0,6.0,92,0.00,,,0.00,0.0,meteohub,2013-05-05 08:52:00,
2013-05-05 04:57:00,37.9,35.8,30.27,North,355,4.0,6.0,92,0.00,,,0.00,0.0,meteohub,2013-05-05 08:57:00,
2013-05-05 05:02:00,37.9,35.8,30.27,North,355,2.0,6.0,92,0.00,,,0.00,0.0,meteohub,2013-05-05 09:02:00,
2013-05-05 05:07:00,37.9,35.8,30.27,North,355,2.0,6.0,92,0.00,,,0.00,0.0,meteohub,2013-05-05 09:07:00,
2013-05-05 05:12:00,37.9,35.8,30.27,North,355,5.0,6.0,92,0.00,,,0.00,0.0,meteohub,2013-05-05 09:12:00,
2013-05-05 05:17:00,37.9,35.8,30.27,North,351,4.0,6.0,92,0.00,,,0.00,0.0,meteohub,2013-05-05 09:17:00,
2013-05-05 05:22:00,38.1,36.0,30.27,North,0,3.0,8.0,92,0.00,,,0.00,0.0,meteohub,2013-05-05 09:22:00,
2013-05-05 05:27:00,37.9,35.8,30.27,North,11,6.0,8.0,92,0.00,,,0.00,0.0,meteohub,2013-05-05 09:27:00,
2013-05-05 05:32:00,38.1,36.0,30.27,North,355,5.0,8.0,92,0.00,,,0.00,0.0,meteohub,2013-05-05 09:32:00,
2013-05-05 05:37:00,38.1,36.0,30.27,North,5,3.0,7.0,92,0.00,,,0.00,0.0,meteohub,2013-05-05 09:37:00,
2013-05-05 05:42:00,38.1,36.0,30.27,NNE,15,5.0,8.0,92,0.00,,,0.00,0.0,meteohub,2013-05-05 09:42:00,
2013-05-05 05:47:00,38.3,36.1,30.27,NNE,17,4.0,9.0,92,0.00,,,0.00,5.0,meteohub,2013-05-05 09:47:00,
2013-05-05 05:52:00,38.3,36.1,30.28,NNE,14,3.0,9.0,92,0.00,,,0.00,9.0,meteohub,2013-05-05 09:52:00,
2013-05-05 05:57:00,38.5,36.3,30.27,North,5,5.0,9.0,92,0.00,,,0.00,11.0,meteohub,2013-05-05 09:57:00,
2013-05-05 06:02:00,38.5,36.3,30.27,NNE,19,8.0,9.0,92,0.00,,,0.00,14.0,meteohub,2013-05-05 10:02:00,
2013-05-05 06:07:00,38.7,36.5,30.28,North,350,7.0,8.0,92,0.00,,,0.00,18.0,meteohub,2013-05-05 10:07:00,
2013-05-05 06:12:00,38.7,36.5,30.27,North,0,6.0,8.0,92,0.00,,,0.00,19.0,meteohub,2013-05-05 10:12:00,
2013-05-05 06:17:00,38.7,36.5,30.28,North,355,2.0,8.0,92,0.00,,,0.00,23.0,meteohub,2013-05-05 10:17:00,
2013-05-05 06:22:00,38.8,36.7,30.27,North,0,7.0,8.0,92,0.00,,,0.00,26.0,meteohub,2013-05-05 10:22:00,
2013-05-05 06:27:00,39.0,36.9,30.28,NNE,23,6.0,9.0,92,0.00,,,0.00,53.0,meteohub,2013-05-05 10:27:00,
2013-05-05 06:32:00,39.6,37.4,30.28,North,5,4.0,9.0,92,0.00,,,0.00,62.0,meteohub,2013-05-05 10:32:00,
2013-05-05 06:37:00,39.7,37.6,30.28,North,5,3.0,9.0,92,0.00,,,0.00,76.0,meteohub,2013-05-05 10:37:00,
2013-05-05 06:42:00,39.9,37.8,30.28,North,355,7.0,9.0,92,0.00,,,0.00,90.0,meteohub,2013-05-05 10:42:00,
2013-05-05 06:47:00,40.3,38.1,30.28,North,0,7.0,8.0,92,0.00,,,0.00,105.0,meteohub,2013-05-05 10:47:00,
2013-05-05 06:52:00,40.8,38.7,30.28,North,5,4.0,10.0,92,0.00,,,0.00,120.0,meteohub,2013-05-05 10:52:00,
2013-05-05 06:57:00,41.2,39.0,30.28,NNE,15,7.0,10.0,92,0.00,,,0.00,134.0,meteohub,2013-05-05 10:57:00,
2013-05-05 07:02:00,41.4,39.0,30.28,NNE,29,8.0,10.0,91,0.00,,,0.00,153.0,meteohub,2013-05-05 11:02:00,
2013-05-05 07:07:00,42.1,39.6,30.28,North,0,6.0,11.0,91,0.00,,,0.00,163.0,meteohub,2013-05-05 11:07:00,
2013-05-05 07:12:00,42.4,39.9,30.28,NNE,21,6.0,11.0,91,0.00,,,0.00,181.0,meteohub,2013-05-05 11:12:00,
2013-05-05 07:17:00,42.8,40.1,30.28,North,5,5.0,11.0,90,0.00,,,0.00,199.0,meteohub,2013-05-05 11:17:00,
2013-05-05 07:22:00,43.3,40.6,30.29,NNE,26,6.0,11.0,90,0.00,,,0.00,209.0,meteohub,2013-05-05 11:22:00,
2013-05-05 07:27:00,43.9,40.8,30.29,ENE,69,6.0,12.0,89,0.00,,,0.00,230.0,meteohub,2013-05-05 11:27:00,
2013-05-05 07:32:00,44.4,40.8,30.29,North,0,3.0,12.0,87,0.00,,,0.00,243.0,meteohub,2013-05-05 11:32:00,
2013-05-05 07:37:00,45.0,41.0,30.29,NNE,19,6.0,13.0,86,0.00,,,0.00,262.0,meteohub,2013-05-05 11:37:00,
2013-05-05 07:42:00,45.9,41.5,30.29,NNE,25,10.0,13.0,85,0.00,,,0.00,278.0,meteohub,2013-05-05 11:42:00,
2013-05-05 07:47:00,46.4,41.9,30.29,North,11,5.0,13.0,84,0.00,,,0.00,301.0,meteohub,2013-05-05 11:47:00,
2013-05-05 07:52:00,46.9,41.7,30.28,NNE,13,5.0,12.0,82,0.00,,,0.00,327.0,meteohub,2013-05-05 11:52:00,
2013-05-05 07:57:00,47.5,41.5,30.28,NNE,21,7.0,12.0,80,0.00,,,0.00,348.0,meteohub,2013-05-05 11:57:00,
2013-05-05 08:02:00,48.0,41.5,30.28,North,0,5.0,12.0,78,0.00,,,0.00,364.0,meteohub,2013-05-05 12:02:00,
2013-05-05 08:07:00,48.7,41.5,30.28,NE,38,6.0,12.0,76,0.00,,,0.00,381.0,meteohub,2013-05-05 12:07:00,
2013-05-05 08:12:00,49.3,41.7,30.28,NNE,16,2.0,12.0,75,0.00,,,0.00,392.0,meteohub,2013-05-05 12:12:00,
2013-05-05 08:17:00,50.0,42.1,30.28,ENE,70,5.0,12.0,74,0.00,,,0.00,417.0,meteohub,2013-05-05 12:17:00,
2013-05-05 08:22:00,50.5,41.9,30.28,NNE,22,9.0,11.0,72,0.00,,,0.00,425.0,meteohub,2013-05-05 12:22:00,
2013-05-05 08:27:00,51.4,41.9,30.28,North,10,7.0,10.0,70,0.00,,,0.00,446.0,meteohub,2013-05-05 12:27:00,
2013-05-05 08:32:00,51.8,41.9,30.28,North,0,7.0,9.0,69,0.00,,,0.00,457.0,meteohub,2013-05-05 12:32:00,
2013-05-05 08:37:00,52.3,42.1,30.28,NNE,32,6.0,11.0,68,0.00,,,0.00,480.0,meteohub,2013-05-05 12:37:00,
2013-05-05 08:42:00,52.7,41.7,30.28,NNE,28,5.0,12.0,66,0.00,,,0.00,490.0,meteohub,2013-05-05 12:42:00,
2013-05-05 08:47:00,53.4,41.9,30.28,NNE,21,1.0,12.0,65,0.00,,,0.00,504.0,meteohub,2013-05-05 12:47:00,
2013-05-05 08:52:00,54.0,42.1,30.28,East,94,5.0,12.0,64,0.00,,,0.00,522.0,meteohub,2013-05-05 12:52:00,
2013-05-05 08:57:00,53.4,41.5,30.28,East,92,6.0,11.0,64,0.00,,,0.00,538.0,meteohub,2013-05-05 12:57:00,
2013-05-05 09:02:00,54.1,41.9,30.28,ESE,117,6.0,11.0,63,0.00,,,0.00,550.0,meteohub,2013-05-05 13:02:00,
2013-05-05 09:07:00,54.0,42.1,30.29,East,89,4.0,11.0,64,0.00,,,0.00,573.0,meteohub,2013-05-05 13:07:00,
2013-05-05 09:12:00,55.6,42.8,30.28,ENE,73,5.0,10.0,62,0.00,,,0.00,585.0,meteohub,2013-05-05 13:12:00,
2013-05-05 09:17:00,55.0,41.4,30.28,ESE,112,7.0,8.0,60,0.00,,,0.00,596.0,meteohub,2013-05-05 13:17:00,
2013-05-05 09:22:00,54.1,41.0,30.29,NE,55,5.0,14.0,61,0.00,,,0.00,610.0,meteohub,2013-05-05 13:22:00,
2013-05-05 09:27:00,55.8,41.7,30.29,East,90,1.0,14.0,59,0.00,,,0.00,643.0,meteohub,2013-05-05 13:27:00,
2013-05-05 09:32:00,56.1,41.5,30.28,NE,52,5.0,14.0,58,0.00,,,0.00,642.0,meteohub,2013-05-05 13:32:00,
2013-05-05 09:37:00,56.5,41.9,30.28,ESE,105,5.0,11.0,58,0.00,,,0.00,645.0,meteohub,2013-05-05 13:37:00,
2013-05-05 09:42:00,56.5,41.4,30.28,NNE,28,6.0,11.0,57,0.00,,,0.00,663.0,meteohub,2013-05-05 13:42:00,
2013-05-05 09:47:00,57.7,42.1,30.28,East,88,7.0,15.0,56,0.00,,,0.00,686.0,meteohub,2013-05-05 13:47:00,
2013-05-05 09:52:00,56.7,41.2,30.28,SSE,165,2.0,15.0,56,0.00,,,0.00,689.0,meteohub,2013-05-05 13:52:00,
2013-05-05 09:57:00,57.7,42.1,30.28,East,81,7.0,15.0,56,0.00,,,0.00,694.0,meteohub,2013-05-05 13:57:00,
2013-05-05 10:02:00,58.1,41.5,30.28,East,91,7.0,13.0,54,0.00,,,0.00,712.0,meteohub,2013-05-05 14:02:00,
2013-05-05 10:07:00,55.8,43.0,30.28,SE,126,4.0,13.0,62,0.00,,,0.00,724.0,meteohub,2013-05-05 14:07:00,
2013-05-05 10:12:00,53.6,43.0,30.28,South,182,8.0,11.0,67,0.00,,,0.00,738.0,meteohub,2013-05-05 14:12:00,
2013-05-05 10:17:00,52.2,42.6,30.28,SSE,157,6.0,17.0,70,0.00,,,0.00,744.0,meteohub,2013-05-05 14:17:00,
2013-05-05 10:22:00,52.0,42.8,30.28,SE,134,8.0,17.0,71,0.00,,,0.00,754.0,meteohub,2013-05-05 14:22:00,
2013-05-05 10:27:00,51.8,43.3,30.28,South,182,5.0,17.0,73,0.00,,,0.00,763.0,meteohub,2013-05-05 14:27:00,
2013-05-05 10:32:00,52.3,43.2,30.29,South,180,9.0,13.0,71,0.00,,,0.00,775.0,meteohub,2013-05-05 14:32:00,
2013-05-05 10:37:00,52.3,43.9,30.28,South,180,4.0,13.0,73,0.00,,,0.00,786.0,meteohub,2013-05-05 14:37:00,
2013-05-05 10:42:00,52.5,44.1,30.28,SSE,159,5.0,13.0,73,0.00,,,0.00,793.0,meteohub,2013-05-05 14:42:00,
2013-05-05 10:47:00,51.8,43.0,30.28,SE,139,6.0,13.0,72,0.00,,,0.00,807.0,meteohub,2013-05-05 14:47:00,
2013-05-05 10:52:00,52.0,42.8,30.28,ESE,122,6.0,14.0,71,0.00,,,0.00,812.0,meteohub,2013-05-05 14:52:00,
2013-05-05 10:57:00,51.8,43.3,30.28,SSE,165,4.0,14.0,73,0.00,,,0.00,819.0,meteohub,2013-05-05 14:57:00,
2013-05-05 11:02:00,52.2,43.3,30.28,SSE,165,6.0,14.0,72,0.00,,,0.00,830.0,meteohub,2013-05-05 15:02:00,
2013-05-05 11:07:00,52.3,43.9,30.28,SSE,148,8.0,16.0,73,0.00,,,0.00,837.0,meteohub,2013-05-05 15:07:00,
2013-05-05 11:12:00,52.2,43.0,30.28,South,171,10.0,16.0,71,0.00,,,0.00,846.0,meteohub,2013-05-05 15:12:00,
2013-05-05 11:17:00,52.5,44.1,30.28,SSW,192,8.0,16.0,73,0.00,,,0.00,851.0,meteohub,2013-05-05 15:17:00,
2013-05-05 11:22:00,53.2,43.7,30.28,SSW,197,5.0,16.0,70,0.00,,,0.00,858.0,meteohub,2013-05-05 15:22:00,
2013-05-05 11:27:00,53.8,44.2,30.28,South,189,4.0,15.0,70,0.00,,,0.00,867.0,meteohub,2013-05-05 15:27:00,
2013-05-05 11:32:00,53.6,44.1,30.28,SSW,207,13.0,13.0,70,0.00,,,0.00,868.0,meteohub,2013-05-05 15:32:00,
2013-05-05 11:37:00,53.8,44.6,30.28,SE,141,5.0,16.0,71,0.00,,,0.00,875.0,meteohub,2013-05-05 15:37:00,
2013-05-05 11:42:00,54.3,44.1,30.28,East,90,8.0,16.0,68,0.00,,,0.00,877.0,meteohub,2013-05-05 15:42:00,
2013-05-05 11:47:00,53.8,43.5,30.28,South,186,6.0,17.0,68,0.00,,,0.00,889.0,meteohub,2013-05-05 15:47:00,
2013-05-05 11:52:00,54.0,44.1,30.27,SSE,148,5.0,17.0,69,0.00,,,0.00,891.0,meteohub,2013-05-05 15:52:00,
2013-05-05 11:57:00,54.3,44.1,30.28,SE,143,9.0,17.0,68,0.00,,,0.00,896.0,meteohub,2013-05-05 15:57:00,
2013-05-05 12:02:00,54.1,43.0,30.27,SE,136,7.0,16.0,66,0.00,,,0.00,900.0,meteohub,2013-05-05 16:02:00,
2013-05-05 12:07:00,54.9,44.4,30.27,ESE,107,7.0,16.0,68,0.00,,,0.00,904.0,meteohub,2013-05-05 16:07:00,
2013-05-05 12:12:00,55.2,44.4,30.27,SSW,200,5.0,14.0,67,0.00,,,0.00,911.0,meteohub,2013-05-05 16:12:00,
2013-05-05 12:17:00,55.6,44.8,30.27,South,177,12.0,12.0,67,0.00,,,0.00,911.0,meteohub,2013-05-05 16:17:00,
2013-05-05 12:22:00,54.5,44.6,30.27,ESE,114,8.0,15.0,69,0.00,,,0.00,916.0,meteohub,2013-05-05 16:22:00,
2013-05-05 12:27:00,55.0,43.2,30.27,ESE,118,11.0,15.0,64,0.00,,,0.00,916.0,meteohub,2013-05-05 16:27:00,
2013-05-05 12:32:00,55.9,44.4,30.27,SE,140,1.0,15.0,65,0.00,,,0.00,918.0,meteohub,2013-05-05 16:32:00,
2013-05-05 12:37:00,55.4,44.6,30.27,ESE,111,7.0,13.0,67,0.00,,,0.00,918.0,meteohub,2013-05-05 16:37:00,
2013-05-05 12:42:00,55.2,45.1,30.27,South,178,5.0,15.0,69,0.00,,,0.00,918.0,meteohub,2013-05-05 16:42:00,
2013-05-05 12:47:00,55.2,44.4,30.27,South,173,10.0,15.0,67,0.00,,,0.00,918.0,meteohub,2013-05-05 16:47:00,
2013-05-05 12:52:00,54.1,44.2,30.27,SE,133,7.0,15.0,69,0.00,,,0.00,919.0,meteohub,2013-05-05 16:52:00,
2013-05-05 12:57:00,55.2,44.8,30.27,SSE,148,7.0,14.0,68,0.00,,,0.00,919.0,meteohub,2013-05-05 16:57:00,
2013-05-05 13:02:00,55.8,45.3,30.27,SE,144,5.0,14.0,68,0.00,,,0.00,912.0,meteohub,2013-05-05 17:02:00,
2013-05-05 13:07:00,55.9,44.4,30.27,South,182,3.0,14.0,65,0.00,,,0.00,918.0,meteohub,2013-05-05 17:07:00,
2013-05-05 13:12:00,54.9,43.7,30.27,SE,127,11.0,13.0,66,0.00,,,0.00,914.0,meteohub,2013-05-05 17:12:00,
2013-05-05 13:17:00,55.0,45.1,30.27,South,186,14.0,14.0,69,0.00,,,0.00,918.0,meteohub,2013-05-05 17:17:00,
2013-05-05 13:22:00,55.9,44.8,30.27,SSE,160,8.0,14.0,66,0.00,,,0.00,916.0,meteohub,2013-05-05 17:22:00,
2013-05-05 13:27:00,54.9,44.1,30.27,SSW,192,8.0,14.0,67,0.00,,,0.00,914.0,meteohub,2013-05-05 17:27:00,
2013-05-05 13:32:00,55.0,45.1,30.27,ESE,123,5.0,16.0,69,0.00,,,0.00,912.0,meteohub,2013-05-05 17:32:00,
2013-05-05 13:37:00,55.9,44.8,30.27,East,86,10.0,16.0,66,0.00,,,0.00,909.0,meteohub,2013-05-05 17:37:00,
2013-05-05 13:42:00,55.9,43.9,30.27,South,177,5.0,16.0,64,0.00,,,0.00,904.0,meteohub,2013-05-05 17:42:00,
2013-05-05 13:47:00,56.7,45.0,30.27,ESE,121,8.0,14.0,65,0.00,,,0.00,900.0,meteohub,2013-05-05 17:47:00,
2013-05-05 13:52:00,56.7,43.7,30.27,ESE,123,8.0,16.0,62,0.00,,,0.00,893.0,meteohub,2013-05-05 17:52:00,
2013-05-05 13:57:00,56.8,43.9,30.27,SE,136,5.0,18.0,62,0.00,,,0.00,888.0,meteohub,2013-05-05 17:57:00,
2013-05-05 14:02:00,57.7,43.9,30.26,South,182,14.0,18.0,60,0.00,,,0.00,884.0,meteohub,2013-05-05 18:02:00,
2013-05-05 14:07:00,57.4,43.2,30.26,ESE,106,9.0,16.0,59,0.00,,,0.00,877.0,meteohub,2013-05-05 18:07:00,
2013-05-05 14:12:00,57.6,44.2,30.26,ESE,103,11.0,16.0,61,0.00,,,0.00,874.0,meteohub,2013-05-05 18:12:00,
2013-05-05 14:17:00,57.4,44.1,30.26,SE,137,5.0,14.0,61,0.00,,,0.00,865.0,meteohub,2013-05-05 18:17:00,
2013-05-05 14:22:00,57.0,43.3,30.26,South,184,10.0,15.0,60,0.00,,,0.00,860.0,meteohub,2013-05-05 18:22:00,
2013-05-05 14:27:00,56.8,43.5,30.25,SSE,159,7.0,16.0,61,0.00,,,0.00,854.0,meteohub,2013-05-05 18:27:00,
2013-05-05 14:32:00,57.2,43.9,30.25,SSE,150,5.0,18.0,61,0.00,,,0.00,846.0,meteohub,2013-05-05 18:32:00,
2013-05-05 14:37:00,56.1,43.3,30.25,South,184,6.0,19.0,62,0.00,,,0.00,842.0,meteohub,2013-05-05 18:37:00,
2013-05-05 14:42:00,57.9,44.6,30.25,SE,137,8.0,19.0,61,0.00,,,0.00,831.0,meteohub,2013-05-05 18:42:00,
2013-05-05 14:47:00,57.7,43.9,30.25,South,188,6.0,19.0,60,0.00,,,0.00,824.0,meteohub,2013-05-05 18:47:00,
2013-05-05 14:52:00,57.4,44.4,30.25,SSE,165,8.0,17.0,62,0.00,,,0.00,812.0,meteohub,2013-05-05 18:52:00,
2013-05-05 14:57:00,57.4,44.4,30.25,SE,145,4.0,17.0,62,0.00,,,0.00,802.0,meteohub,2013-05-05 18:57:00,
2013-05-05 15:02:00,57.0,43.7,30.24,SE,140,11.0,17.0,61,0.00,,,0.00,796.0,meteohub,2013-05-05 19:02:00,
2013-05-05 15:07:00,56.8,43.5,30.24,SE,125,12.0,19.0,61,0.00,,,0.00,784.0,meteohub,2013-05-05 19:07:00,
2013-05-05 15:12:00,56.7,44.2,30.24,South,170,12.0,19.0,63,0.00,,,0.00,770.0,meteohub,2013-05-05 19:12:00,
2013-05-05 15:17:00,56.8,44.4,30.24,SSE,167,13.0,19.0,63,0.00,,,0.00,763.0,meteohub,2013-05-05 19:17:00,
2013-05-05 15:22:00,57.4,44.1,30.24,South,169,10.0,18.0,61,0.00,,,0.00,754.0,meteohub,2013-05-05 19:22:00,
2013-05-05 15:27:00,56.8,43.5,30.24,SE,128,7.0,21.0,61,0.00,,,0.00,742.0,meteohub,2013-05-05 19:27:00,
2013-05-05 15:32:00,56.1,43.3,30.25,South,182,13.0,21.0,62,0.00,,,0.00,731.0,meteohub,2013-05-05 19:32:00,
2013-05-05 15:37:00,55.8,44.6,30.25,SE,130,7.0,21.0,66,0.00,,,0.00,719.0,meteohub,2013-05-05 19:37:00,
2013-05-05 15:42:00,55.9,45.1,30.24,South,171,7.0,21.0,67,0.00,,,0.00,707.0,meteohub,2013-05-05 19:42:00,
2013-05-05 15:47:00,56.5,46.0,30.25,ESE,119,2.0,21.0,68,0.00,,,0.00,694.0,meteohub,2013-05-05 19:47:00,
2013-05-05 15:52:00,57.6,45.9,30.24,SSE,155,8.0,17.0,65,0.00,,,0.00,679.0,meteohub,2013-05-05 19:52:00,
2013-05-05 15:57:00,57.0,45.3,30.24,ENE,71,3.0,14.0,65,0.00,,,0.00,668.0,meteohub,2013-05-05 19:57:00,
2013-05-05 16:02:00,56.7,45.9,30.24,ESE,102,4.0,16.0,67,0.00,,,0.00,654.0,meteohub,2013-05-05 20:02:00,
2013-05-05 16:07:00,56.3,46.2,30.24,South,171,5.0,16.0,69,0.00,,,0.00,642.0,meteohub,2013-05-05 20:07:00,
2013-05-05 16:12:00,56.1,46.4,30.24,South,172,6.0,16.0,70,0.00,,,0.00,626.0,meteohub,2013-05-05 20:12:00,
2013-05-05 16:17:00,55.8,46.0,30.24,SSE,162,4.0,16.0,70,0.00,,,0.00,613.0,meteohub,2013-05-05 20:17:00,
2013-05-05 16:22:00,55.4,45.9,30.24,South,171,7.0,16.0,70,0.00,,,0.00,598.0,meteohub,2013-05-05 20:22:00,
2013-05-05 16:27:00,55.2,45.7,30.24,SE,139,12.0,14.0,70,0.00,,,0.00,585.0,meteohub,2013-05-05 20:27:00,
2013-05-05 16:32:00,55.9,46.2,30.24,SSE,165,12.0,12.0,70,0.00,,,0.00,568.0,meteohub,2013-05-05 20:32:00,
2013-05-05 16:37:00,55.4,45.0,30.24,South,181,11.0,14.0,68,0.00,,,0.00,554.0,meteohub,2013-05-05 20:37:00,
2013-05-05 16:42:00,54.9,45.0,30.24,ESE,121,6.0,14.0,69,0.00,,,0.00,540.0,meteohub,2013-05-05 20:42:00,
2013-05-05 16:47:00,55.9,45.5,30.24,SSE,163,4.0,14.0,68,0.00,,,0.00,527.0,meteohub,2013-05-05 20:47:00,
2013-05-05 16:52:00,55.4,45.0,30.24,SE,135,9.0,14.0,68,0.00,,,0.00,513.0,meteohub,2013-05-05 20:52:00,
2013-05-05 16:57:00,55.8,45.0,30.24,SSE,166,6.0,14.0,67,0.00,,,0.00,497.0,meteohub,2013-05-05 20:57:00,
2013-05-05 17:02:00,55.4,44.6,30.24,SSE,165,8.0,14.0,67,0.00,,,0.00,480.0,meteohub,2013-05-05 21:02:00,
2013-05-05 17:07:00,54.9,44.4,30.24,South,171,5.0,12.0,68,0.00,,,0.00,464.0,meteohub,2013-05-05 21:07:00,
2013-05-05 17:12:00,56.1,45.3,30.24,ESE,111,1.0,15.0,67,0.00,,,0.00,448.0,meteohub,2013-05-05 21:12:00,
2013-05-05 17:17:00,56.5,45.3,30.24,SE,132,6.0,15.0,66,0.00,,,0.00,431.0,meteohub,2013-05-05 21:17:00,
2013-05-05 17:22:00,54.9,44.1,30.24,SSE,148,5.0,14.0,67,0.00,,,0.00,415.0,meteohub,2013-05-05 21:22:00,
2013-05-05 17:27:00,55.2,44.4,30.24,SE,145,6.0,17.0,67,0.00,,,0.00,397.0,meteohub,2013-05-05 21:27:00,
2013-05-05 17:32:00,54.9,44.4,30.24,South,173,5.0,17.0,68,0.00,,,0.00,381.0,meteohub,2013-05-05 21:32:00,
2013-05-05 17:37:00,55.0,44.6,30.24,South,169,8.0,13.0,68,0.00,,,0.00,366.0,meteohub,2013-05-05 21:37:00,
2013-05-05 17:42:00,55.0,44.2,30.24,SE,142,6.0,13.0,67,0.00,,,0.00,350.0,meteohub,2013-05-05 21:42:00,
2013-05-05 17:47:00,55.6,44.4,30.24,South,171,9.0,13.0,66,0.00,,,0.00,334.0,meteohub,2013-05-05 21:47:00,
2013-05-05 17:52:00,55.6,44.4,30.24,SE,125,6.0,13.0,66,0.00,,,0.00,318.0,meteohub,2013-05-05 21:52:00,
2013-05-05 17:57:00,55.2,44.1,30.24,ESE,123,4.0,13.0,66,0.00,,,0.00,302.0,meteohub,2013-05-05 21:57:00,
2013-05-05 18:02:00,54.9,44.1,30.24,SE,142,5.0,13.0,67,0.00,,,0.00,283.0,meteohub,2013-05-05 22:02:00,
2013-05-05 18:07:00,54.7,43.5,30.24,East,81,6.0,12.0,66,0.00,,,0.00,269.0,meteohub,2013-05-05 22:07:00,
2013-05-05 18:12:00,55.0,43.5,30.24,SSE,160,2.0,12.0,65,0.00,,,0.00,253.0,meteohub,2013-05-05 22:12:00,
2013-05-05 18:17:00,55.4,43.9,30.24,East,93,2.0,12.0,65,0.00,,,0.00,236.0,meteohub,2013-05-05 22:17:00,
2013-05-05 18:22:00,56.1,44.1,30.23,SE,142,2.0,14.0,64,0.00,,,0.00,218.0,meteohub,2013-05-05 22:22:00,
2013-05-05 18:27:00,55.8,43.3,30.23,ESE,121,5.0,14.0,63,0.00,,,0.00,204.0,meteohub,2013-05-05 22:27:00,
2013-05-05 18:32:00,55.9,43.2,30.23,SE,133,14.0,14.0,62,0.00,,,0.00,186.0,meteohub,2013-05-05 22:32:00,
2013-05-05 18:37:00,55.6,42.8,30.23,SE,128,4.0,15.0,62,0.00,,,0.00,167.0,meteohub,2013-05-05 22:37:00,
2013-05-05 18:42:00,55.2,43.7,30.23,East,90,4.0,15.0,65,0.00,,,0.00,148.0,meteohub,2013-05-05 22:42:00,
2013-05-05 18:47:00,55.2,42.4,30.23,East,96,9.0,15.0,62,0.00,,,0.00,130.0,meteohub,2013-05-05 22:47:00,
2013-05-05 18:52:00,55.0,42.6,30.23,East,92,4.0,13.0,63,0.00,,,0.00,111.0,meteohub,2013-05-05 22:52:00,
2013-05-05 18:57:00,54.9,43.0,30.23,ESE,121,6.0,11.0,64,0.00,,,0.00,95.0,meteohub,2013-05-05 22:57:00,
2013-05-05 19:02:00,54.5,42.6,30.23,ESE,115,2.0,11.0,64,0.00,,,0.00,49.0,meteohub,2013-05-05 23:02:00,
2013-05-05 19:07:00,54.1,42.6,30.23,SE,125,2.0,10.0,65,0.00,,,0.00,35.0,meteohub,2013-05-05 23:07:00,
2013-05-05 19:12:00,53.8,42.6,30.24,SE,140,7.0,9.0,66,0.00,,,0.00,33.0,meteohub,2013-05-05 23:12:00,
2013-05-05 19:17:00,53.2,42.6,30.24,ESE,119,8.0,11.0,67,0.00,,,0.00,30.0,meteohub,2013-05-05 23:17:00,
2013-05-05 19:22:00,52.9,43.0,30.24,ESE,113,5.0,11.0,69,0.00,,,0.00,26.0,meteohub,2013-05-05 23:22:00,
2013-05-05 19:27:00,52.7,43.2,30.24,SE,125,8.0,11.0,70,0.00,,,0.00,23.0,meteohub,2013-05-05 23:27:00,
2013-05-05 19:32:00,52.3,43.2,30.24,SE,143,1.0,11.0,71,0.00,,,0.00,19.0,meteohub,2013-05-05 23:32:00,
2013-05-05 19:37:00,52.0,43.2,30.24,East,83,7.0,13.0,72,0.00,,,0.00,16.0,meteohub,2013-05-05 23:37:00,
2013-05-05 19:42:00,51.6,43.5,30.24,SE,143,2.0,13.0,74,0.00,,,0.00,12.0,meteohub,2013-05-05 23:42:00,
2013-05-05 19:47:00,51.6,43.5,30.24,SE,127,4.0,11.0,74,0.00,,,0.00,9.0,meteohub,2013-05-05 23:47:00,
2013-05-05 19:52:00,51.4,43.7,30.24,SE,134,4.0,11.0,75,0.00,,,0.00,5.0,meteohub,2013-05-05 23:52:00,
2013-05-05 19:57:00,51.4,44.1,30.24,ESE,109,4.0,6.0,76,0.00,,,0.00,0.0,meteohub,2013-05-05 23:57:00,
2013-05-05 20:02:00,51.3,43.9,30.24,SE,127,7.0,9.0,76,0.00,,,0.00,0.0,meteohub,2013-05-06 00:02:00,
2013-05-05 20:07:00,50.9,43.9,30.25,SSE,154,0.0,9.0,77,0.00,,,0.00,0.0,meteohub,2013-05-06 00:07:00,
2013-05-05 20:12:00,50.7,43.7,30.25,SE,146,1.0,9.0,77,0.00,,,0.00,0.0,meteohub,2013-05-06 00:12:00,
2013-05-05 20:17:00,50.5,43.9,30.25,SE,141,0.0,8.0,78,0.00,,,0.00,0.0,meteohub,2013-05-06 00:17:00,
2013-05-05 20:22:00,50.5,44.2,30.25,SE,146,4.0,7.0,79,0.00,,,0.00,0.0,meteohub,2013-05-06 00:22:00,
2013-05-05 20:27:00,50.5,44.2,30.25,East,94,0.0,6.0,79,0.00,,,0.00,0.0,meteohub,2013-05-06 00:27:00,
2013-05-05 20:32:00,50.4,44.1,30.25,SE,136,5.0,6.0,79,0.00,,,0.00,0.0,meteohub,2013-05-06 00:32:00,
2013-05-05 20:37:00,50.2,44.2,30.25,SSE,149,2.0,6.0,80,0.00,,,0.00,0.0,meteohub,2013-05-06 00:37:00,
2013-05-05 20:42:00,50.2,44.2,30.25,SSE,150,0.0,5.0,80,0.00,,,0.00,0.0,meteohub,2013-05-06 00:42:00,
2013-05-05 20:47:00,50.2,44.6,30.25,SSE,148,0.0,5.0,81,0.00,,,0.00,0.0,meteohub,2013-05-06 00:47:00,
2013-05-05 20:52:00,49.8,44.2,30.25,SSE,148,0.0,5.0,81,0.00,,,0.00,0.0,meteohub,2013-05-06 00:52:00,
2013-05-05 20:57:00,49.6,44.1,30.25,SSE,148,0.0,5.0,81,0.00,,,0.00,0.0,meteohub,2013-05-06 00:57:00,
2013-05-05 21:02:00,49.6,44.4,30.26,SE,128,0.0,5.0,82,0.00,,,0.00,0.0,meteohub,2013-05-06 01:02:00,
2013-05-05 21:07:00,49.5,44.2,30.26,SE,142,0.0,7.0,82,0.00,,,0.00,0.0,meteohub,2013-05-06 01:07:00,
2013-05-05 21:12:00,49.5,44.6,30.26,SSE,149,0.0,7.0,83,0.00,,,0.00,0.0,meteohub,2013-05-06 01:12:00,
2013-05-05 21:17:00,49.3,44.4,30.26,SSE,148,2.0,7.0,83,0.00,,,0.00,0.0,meteohub,2013-05-06 01:17:00,
2013-05-05 21:22:00,49.3,44.4,30.26,SSE,148,0.0,5.0,83,0.00,,,0.00,0.0,meteohub,2013-05-06 01:22:00,
2013-05-05 21:27:00,49.1,44.2,30.26,SSE,147,0.0,4.0,83,0.00,,,0.00,0.0,meteohub,2013-05-06 01:27:00,
2013-05-05 21:32:00,48.9,44.1,30.27,SE,146,0.0,4.0,83,0.00,,,0.00,0.0,meteohub,2013-05-06 01:32:00,
2013-05-05 21:37:00,48.9,44.1,30.27,SE,146,0.0,4.0,83,0.00,,,0.00,0.0,meteohub,2013-05-06 01:37:00,
2013-05-05 21:42:00,48.6,43.7,30.27,SE,146,0.0,2.0,83,0.00,,,0.00,0.0,meteohub,2013-05-06 01:42:00,
2013-05-05 21:47:00,48.0,43.2,30.27,SE,146,0.0,2.0,83,0.00,,,0.00,0.0,meteohub,2013-05-06 01:47:00,
2013-05-05 21:52:00,47.7,43.0,30.27,SE,146,0.0,2.0,84,0.00,,,0.00,0.0,meteohub,2013-05-06 01:52:00,
2013-05-05 21:57:00,47.1,42.6,30.26,SE,146,0.0,2.0,84,0.00,,,0.00,0.0,meteohub,2013-05-06 01:57:00,
2013-05-05 22:02:00,46.6,42.1,30.26,SE,146,0.0,0.0,84,0.00,,,0.00,0.0,meteohub,2013-05-06 02:02:00,
2013-05-05 22:07:00,46.2,41.9,30.27,SE,146,0.0,0.0,85,0.00,,,0.00,0.0,meteohub,2013-05-06 02:07:00,
2013-05-05 22:12:00,46.0,41.7,30.26,SE,146,0.0,1.0,85,0.00,,,0.00,0.0,meteohub,2013-05-06 02:12:00,
2013-05-05 22:17:00,45.9,41.9,30.26,SE,146,0.0,1.0,86,0.00,,,0.00,0.0,meteohub,2013-05-06 02:17:00,
2013-05-05 22:22:00,45.9,42.3,30.26,SE,146,0.0,1.0,87,0.00,,,0.00,0.0,meteohub,2013-05-06 02:22:00,
2013-05-05 22:27:00,45.9,42.3,30.26,SE,146,0.0,0.0,87,0.00,,,0.00,0.0,meteohub,2013-05-06 02:27:00,
2013-05-05 22:32:00,45.5,41.9,30.26,SE,146,0.0,0.0,87,0.00,,,0.00,0.0,meteohub,2013-05-06 02:32:00,
2013-05-05 22:37:00,45.0,41.4,30.26,SE,146,0.0,2.0,87,0.00,,,0.00,0.0,meteohub,2013-05-06 02:37:00,
2013-05-05 22:42:00,44.6,41.0,30.26,SE,146,0.0,2.0,87,0.00,,,0.00,0.0,meteohub,2013-05-06 02:42:00,
2013-05-05 22:47:00,44.4,41.2,30.26,SE,146,0.0,2.0,88,0.00,,,0.00,0.0,meteohub,2013-05-06 02:47:00,
2013-05-05 22:52:00,44.8,41.4,30.26,SE,146,0.0,0.0,88,0.00,,,0.00,0.0,meteohub,2013-05-06 02:52:00,
2013-05-05 22:57:00,44.4,41.2,30.26,SE,146,1.0,0.0,88,0.00,,,0.00,0.0,meteohub,2013-05-06 02:57:00,
2013-05-05 23:02:00,44.8,41.7,30.26,SE,146,0.0,2.0,89,0.00,,,0.00,0.0,meteohub,2013-05-06 03:02:00,
2013-05-05 23:07:00,44.6,41.2,30.26,SE,146,0.0,2.0,88,0.00,,,0.00,0.0,meteohub,2013-05-06 03:07:00,
2013-05-05 23:12:00,44.1,40.8,30.26,SE,146,0.0,2.0,88,0.00,,,0.00,0.0,meteohub,2013-05-06 03:12:00,
2013-05-05 23:17:00,44.2,41.2,30.26,SE,146,1.0,1.0,89,0.00,,,0.00,0.0,meteohub,2013-05-06 03:17:00,
2013-05-05 23:22:00,44.6,41.9,30.27,SE,146,0.0,2.0,90,0.00,,,0.00,0.0,meteohub,2013-05-06 03:22:00,
2013-05-05 23:27:00,45.0,42.3,30.27,SE,146,0.0,2.0,90,0.00,,,0.00,0.0,meteohub,2013-05-06 03:27:00,
2013-05-05 23:32:00,45.1,42.1,30.27,SE,146,0.0,2.0,89,0.00,,,0.00,0.0,meteohub,2013-05-06 03:32:00,
2013-05-05 23:37:00,45.0,41.9,30.26,SE,146,0.0,0.0,89,0.00,,,0.00,0.0,meteohub,2013-05-06 03:37:00,
2013-05-05 23:42:00,44.8,41.7,30.26,SE,146,2.0,2.0,89,0.00,,,0.00,0.0,meteohub,2013-05-06 03:42:00,
2013-05-05 23:47:00,45.0,42.3,30.26,SE,146,0.0,4.0,90,0.00,,,0.00,0.0,meteohub,2013-05-06 03:47:00,
2013-05-05 23:52:00,45.3,42.6,30.26,SE,146,0.0,4.0,90,0.00,,,0.00,0.0,meteohub,2013-05-06 03:52:00,
2013-05-05 23:57:00,45.9,43.2,30.26,SE,146,0.0,4.0,90,0.00,,,0.00,0.0,meteohub,2013-05-06 03:57:00,